TimeMST,TemperatureF,Dew PointF,Humidity,Sea Level PressureIn,VisibilityMPH,Wind Direction,Wind SpeedMPH,Gust SpeedMPH,PrecipitationIn,Events,Conditions,WindDirDegrees,DateUTC
12:31 AM,35.6,17.6,48,30.16,4.0,Calm,Calm,-,N/A,,Haze,0,2012-11-02 07:31:00
12:39 AM,35.6,17.6,48,30.16,4.0,Calm,Calm,-,N/A,,Haze,0,2012-11-02 07:39:00
12:57 AM,36.0,17.1,46,29.98,4.0,Calm,Calm,-,N/A,,Haze,0,2012-11-02 07:57:00
1:13 AM,35.6,17.6,48,30.16,5.0,Calm,Calm,-,N/A,,Haze,0,2012-11-02 08:13:00
1:57 AM,37.0,18.0,46,29.97,4.0,Calm,Calm,-,N/A,,Haze,0,2012-11-02 08:57:00
2:57 AM,37.0,18.0,46,29.96,10.0,Calm,Calm,-,N/A,,Clear,0,2012-11-02 09:57:00
3:57 AM,37.0,19.0,48,29.97,5.0,Calm,Calm,-,N/A,,Haze,0,2012-11-02 10:57:00
4:57 AM,36.0,19.9,52,29.99,6.0,Calm,Calm,-,N/A,,Haze,0,2012-11-02 11:57:00
6:57 AM,33.1,19.9,59,30.07,10.0,Calm,Calm,-,N/A,,Clear,0,2012-11-02 13:57:00
7:57 AM,37.0,21.0,52,30.07,10.0,Calm,Calm,-,N/A,,Clear,0,2012-11-02 14:57:00
8:57 AM,53.1,24.1,32,30.02,10.0,Calm,Calm,-,N/A,,Clear,0,2012-11-02 15:57:00
9:57 AM,55.0,25.0,31,30.04,10.0,SW,9.2,-,N/A,,Clear,220,2012-11-02 16:57:00
10:57 AM,57.9,26.1,30,30.03,10.0,SW,18.4,21.9,N/A,,Clear,230,2012-11-02 17:57:00
11:54 AM,57.2,26.6,31,30.18,10.0,SW,16.1,24.2,N/A,,Clear,230,2012-11-02 18:54:00
11:57 AM,59.0,26.1,28,30.01,10.0,WSW,11.5,24.2,N/A,,Clear,240,2012-11-02 18:57:00
12:57 PM,59.0,25.0,27,29.99,10.0,WSW,9.2,23.0,N/A,,Clear,240,2012-11-02 19:57:00
1:57 PM,59.0,21.9,24,29.97,10.0,Variable,3.5,-,N/A,,Clear,0,2012-11-02 20:57:00
2:57 PM,59.0,21.9,24,29.96,10.0,South,10.4,16.1,N/A,,Clear,190,2012-11-02 21:57:00
3:57 PM,57.9,21.9,25,29.96,10.0,SW,9.2,-,N/A,,Clear,220,2012-11-02 22:57:00
4:57 PM,57.0,23.0,27,29.97,10.0,SSW,8.1,-,N/A,,Clear,200,2012-11-02 23:57:00
5:57 PM,48.9,23.0,36,30.03,10.0,South,3.5,-,N/A,,Clear,190,2012-11-03 00:57:00
6:57 PM,42.1,21.9,45,30.09,10.0,Calm,Calm,-,N/A,,Clear,0,2012-11-03 01:57:00
7:57 PM,37.9,21.0,51,30.09,10.0,Calm,Calm,-,N/A,,Clear,0,2012-11-03 02:57:00
8:57 PM,35.1,21.0,57,30.05,9.0,Calm,Calm,-,N/A,,Clear,0,2012-11-03 03:57:00
9:57 PM,33.1,21.0,61,30.06,10.0,Calm,Calm,-,N/A,,Clear,0,2012-11-03 04:57:00
10:57 PM,30.9,21.0,67,30.06,10.0,Calm,Calm,-,N/A,,Clear,0,2012-11-03 05:57:00
11:57 PM,30.9,21.0,67,30.06,10.0,Calm,Calm,-,N/A,,Clear,0,2012-11-03 06:57:00